Flag for Andorra Weather past 2 weeks in Andorra La Vella, Andorra

Now
72 °F

Mostly cloudy.


Feels Like: 67 °F
Forecast: 43 / 74 °F
Wind: 13 mph from East

Location: Carcassonne Airport

Current Time: Sep 19, 2014 at 1:49:48 AM

Latest Report: Sep 19, 2014 at 1:30 AM


Visibility: N/A

Pressure: 29.83 "Hg

Humidity: 94%

Dew point: 70 °F

Location of Andorra La VellaLocation

Historic Weather in Andorra La Vella — Graph

°F

Andorra La Vella temperature yesterday

Maximum temperature yesterday: 77 °F (at 4:00 PM)
Minimum temperature yesterday: 66 °F (at 3:30 AM)
Average temperature yesterday: 70 °F

Past Weeks' High & Low Weather Summary

 TemperatureHumidityPressure
High88 °F (Sep 6, 4:30 PM)100% (Sep 5, 2:30 AM)30.07 "Hg (Sep 5, 2:30 AM)
Low52 °F (Sep 13, 4:30 AM)31% (Sep 6, 6:00 PM)29.71 "Hg (Sep 17, 5:00 AM)
Average70 °F73%29.92 "Hg
* Reported Midnight between Sep 3 and Sep 4 — Sep 19 12:30 AM, Andorra La Vella, Weather by CustomWeather, © 2014

Note: Actual official high and low records may vary slightly from our data, if they occured in-between our weather recording intervals... More about our weather records

Advertising

Andorra La Vella weather history for previous 24 hours

 ConditionsComfort  
Time TempWeatherWind HumidityBarometerVisibility
12:30 AM
Sep 19
72 °FPassing clouds.17 mph94%29.83 "HgN/A
12:00 AM72 °FPassing clouds.15 mph94%29.83 "HgN/A
11:30 PM
Sep 18
72 °FPassing clouds.16 mph94%29.83 "HgN/A
11:00 PM72 °FMostly cloudy.14 mph94%29.83 "HgN/A
10:30 PM72 °FLow clouds.16 mph94%29.83 "HgN/A
10:00 PM73 °FMostly cloudy.18 mph89%29.80 "HgN/A
9:30 PM73 °FMostly cloudy.15 mph89%29.80 "HgN/A
9:00 PM72 °FLow clouds.16 mph94%29.80 "HgN/A
8:30 PM73 °FLow clouds.18 mph89%29.77 "HgN/A
8:00 PM73 °FLow clouds.17 mph89%29.77 "HgN/A
7:30 PM73 °FOvercast.17 mph83%29.77 "HgN/A
7:00 PM73 °FOvercast.18 mph83%29.77 "HgN/A
6:30 PM73 °FOvercast.21 mph83%29.77 "HgN/A
6:00 PM73 °FOvercast.21 mph83%29.77 "HgN/A
5:30 PM75 °FMostly cloudy.21 mph78%29.77 "HgN/A
5:00 PM75 °FPartly sunny.21 mph78%29.77 "HgN/A
4:30 PM75 °FPartly sunny.20 mph78%29.77 "HgN/A
4:00 PM77 °FPartly sunny.21 mph69%29.77 "HgN/A
3:30 PM75 °FPartly sunny.21 mph74%29.77 "HgN/A
3:00 PM75 °FPartly sunny.20 mph74%29.80 "HgN/A
2:30 PM75 °FOvercast.18 mph74%29.80 "HgN/A
2:00 PM75 °FOvercast.17 mph74%29.80 "HgN/A
1:30 PM73 °FOvercast.14 mph78%29.80 "HgN/A
1:00 PM73 °FOvercast.18 mph74%29.80 "HgN/A
12:30 PM72 °FOvercast.14 mph78%29.80 "HgN/A
12:00 PM70 °FOvercast.13 mph78%29.80 "HgN/A
11:30 AM68 °FOvercast.9 mph83%29.83 "HgN/A
11:00 AM68 °FOvercast.13 mph83%29.83 "HgN/A
10:30 AM68 °FOvercast.13 mph83%29.83 "HgN/A
10:00 AM66 °FOvercast.12 mph88%29.80 "HgN/A
9:30 AM66 °FOvercast.13 mph83%29.80 "HgN/A
9:00 AM66 °FOvercast.10 mph88%29.80 "HgN/A
8:30 AM66 °FOvercast.14 mph88%29.80 "HgN/A
8:00 AM66 °FOvercast.12 mph88%29.80 "HgN/A
7:30 AM66 °FOvercast.13 mph83%29.80 "HgN/A
7:00 AM66 °FOvercast.10 mph88%29.77 "HgN/A
6:30 AM66 °FOvercast.7 mph83%29.77 "HgN/A
6:00 AM66 °FOvercast.9 mph83%29.77 "HgN/A
5:30 AM66 °FOvercast.8 mph83%29.77 "HgN/A
5:00 AM66 °FOvercast.7 mph83%29.77 "HgN/A
4:30 AM66 °FMostly cloudy.9 mph83%29.77 "HgN/A
4:00 AM66 °FOvercast.13 mph88%29.77 "HgN/A
3:30 AM66 °FOvercast.15 mph88%29.77 "HgN/A
3:00 AM68 °FOvercast.9 mph83%29.80 "HgN/A
2:30 AM68 °FOvercast.15 mph83%29.80 "HgN/A
2:00 AM68 °FOvercast.16 mph83%29.80 "HgN/A
1:30 AM70 °FOvercast.12 mph88%29.80 "HgN/A
1:00 AM70 °FOvercast.15 mph88%29.80 "HgN/A
Weather by CustomWeather, © 2014

See weather overviewHow to use our weather pages